Weather History for KOSC - January, 2014

Change the Weather History Date:

Wednesday, January 29, 2014

  Actual Average Record
Temperature  
Mean Temperature 13 °F -  
Max Temperature 21 °F 27 °F 49 °F (2013)
Min Temperature 5 °F 13 °F -7 °F (1997)
Degree Days  
Heating Degree Days 52    
Moisture  
Dew Point 3 °F    
Average Humidity 67    
Maximum Humidity 77    
Minimum Humidity 52    
Precipitation  
Precipitation 0.00 in - - ()
Sea Level Pressure  
Sea Level Pressure 29.93 in    
Wind  
Wind Speed 15 mph (SW)    
Max Wind Speed 24 mph    
Max Gust Speed 32 mph    
Visibility 10 miles    
Events      
Averages and records for this station are not official NWS values.
T = Trace of Precipitation, MM = Missing Value Source: NWS Daily Summary

Daily Weather History Graph

Daily Weather History Graph

Search for Another Location

Airport or City:

Trip Planner

Search our weather history database for the weather conditions in past years. The results will help you decide how hot, cold, wet, or windy it might be!

Date:

Astronomy

Jan. 29, 2014 Rise Set
Actual Time 7:55 AM EST 5:38 PM EST
Civil Twilight 7:24 AM EST 6:09 PM EST
Nautical Twilight 6:49 AM EST 6:44 PM EST
Astronomical Twilight 6:14 AM EST 7:19 PM EST
Moon 6:31 AM EST (1/29) 4:37 PM EST (1/29)
Length of Visible Light 10h 45m
Length of Day
9h 43m
Waning Crescent, 2% of the Moon is Illuminated
Jan 29
Waning Crescent
Jan 30
New
Feb 6
First Quarter
Feb 14
Full
Feb 22
Last Quarter

Hourly Weather History & Observations

Time (EST) Temp. Windchill Dew Point Humidity Pressure Visibility Wind Dir Wind Speed Gust Speed Precip Events Conditions
12:14 AM 6.4 °F -12.3 °F -0.4 °F 74% 29.95 in 10.0 mi SW 17.3 mph - N/A   Mostly Cloudy
12:33 AM 6.1 °F -12.2 °F -0.4 °F 75% 29.94 in 10.0 mi SW 16.1 mph - N/A   Scattered Clouds
12:54 AM 6.6 °F -12.6 °F -0.4 °F 73% 29.93 in 10.0 mi SW 18.4 mph 21.9 mph N/A   Clear
1:14 AM 6.6 °F -10.2 °F -0.2 °F 74% 29.92 in 10.0 mi SW 13.8 mph 20.7 mph N/A   Mostly Cloudy
1:33 AM 6.4 °F -9.8 °F -0.4 °F 74% 29.92 in 10.0 mi SW 12.7 mph - N/A   Mostly Cloudy
1:54 AM 5.5 °F -9.3 °F -0.4 °F 77% 29.92 in 10.0 mi SSW 10.4 mph - N/A   Scattered Clouds
2:14 AM 5.5 °F -9.3 °F -0.9 °F 75% 29.91 in 10.0 mi SSW 10.4 mph - N/A   Scattered Clouds
2:33 AM 5.4 °F -9.6 °F -1.3 °F 74% 29.91 in 10.0 mi SSW 10.4 mph - N/A   Clear
2:54 AM 5.2 °F -8.9 °F -1.3 °F 75% 29.90 in 10.0 mi SW 9.2 mph - N/A   Scattered Clouds
3:13 AM 5.5 °F -9.3 °F -1.3 °F 73% 29.90 in 10.0 mi SW 10.4 mph - N/A   Mostly Cloudy
3:34 AM 7.0 °F -12.1 °F -0.9 °F 70% 29.89 in 10.0 mi WSW 18.4 mph 27.6 mph N/A   Overcast
3:54 AM 7.2 °F -8.9 °F -0.6 °F 71% 29.88 in 10.0 mi WSW 12.7 mph - N/A   Overcast
4:13 AM 7.2 °F -10.2 °F -0.6 °F 71% 29.88 in 10.0 mi WSW 15.0 mph - N/A   Overcast
4:34 AM 7.5 °F -9.7 °F -0.0 °F 71% 29.88 in 10.0 mi WSW 15.0 mph 21.9 mph N/A   Overcast
4:54 AM 7.7 °F -11.2 °F -0.0 °F 71% 29.87 in 5.0 mi SW 18.4 mph 25.3 mph N/A   Haze
5:13 AM 7.5 °F -10.3 °F -0.8 °F 69% 29.87 in 10.0 mi SW 16.1 mph 21.9 mph N/A   Mostly Cloudy
5:34 AM 6.8 °F -10.7 °F -0.9 °F 71% 29.87 in 10.0 mi SW 15.0 mph - N/A   Clear
5:54 AM 6.4 °F -9.0 °F -1.3 °F 71% 29.87 in 10.0 mi SW 11.5 mph - N/A   Clear
6:13 AM 6.3 °F -9.2 °F -1.3 °F 71% 29.87 in 10.0 mi SW 11.5 mph 17.3 mph N/A   Scattered Clouds
6:34 AM 6.1 °F -10.2 °F -1.3 °F 72% 29.87 in 10.0 mi SW 12.7 mph - N/A   Clear
6:54 AM 7.0 °F -8.3 °F -0.4 °F 72% 29.87 in 10.0 mi SW 11.5 mph - N/A   Mostly Cloudy
7:13 AM 7.7 °F -8.9 °F 0.1 °F 71% 29.87 in 10.0 mi SW 13.8 mph - N/A   Overcast
7:34 AM 7.7 °F -10.1 °F 0.5 °F 72% 29.87 in 10.0 mi SW 16.1 mph 19.6 mph N/A   Overcast
7:54 AM 7.7 °F -10.1 °F 0.9 °F 74% 29.87 in 10.0 mi WSW 16.1 mph 20.7 mph N/A   Overcast
8:13 AM 8.2 °F -8.2 °F 1.4 °F 74% 29.88 in 10.0 mi WSW 13.8 mph - N/A   Overcast
8:34 AM 8.6 °F -6.3 °F 1.4 °F 73% 29.88 in 10.0 mi WSW 11.5 mph - N/A   Overcast
8:54 AM 9.1 °F -6.4 °F 1.8 °F 72% 29.88 in 10.0 mi WSW 12.7 mph - N/A   Overcast
9:13 AM 9.5 °F -5.9 °F 2.3 °F 73% 29.89 in 10.0 mi WSW 12.7 mph - N/A   Overcast
9:34 AM 10.4 °F -5.4 °F 2.7 °F 71% 29.90 in 7.0 mi WSW 13.8 mph 20.7 mph N/A   Overcast
9:54 AM 10.9 °F -3.4 °F 3.2 °F 71% 29.90 in 7.0 mi WSW 11.5 mph - N/A   Overcast
10:13 AM 12.0 °F -4.0 °F 3.4 °F 68% 29.90 in 7.0 mi West 15.0 mph 25.3 mph N/A   Overcast
10:34 AM 12.6 °F -3.8 °F 3.9 °F 68% 29.90 in 10.0 mi West 16.1 mph 21.9 mph N/A   Overcast
10:53 AM 13.3 °F -2.4 °F 4.1 °F 67% 29.90 in 10.0 mi West 15.0 mph 23.0 mph N/A   Overcast
11:14 AM 15.1 °F -2.5 °F 4.5 °F 63% 29.90 in 10.0 mi West 20.7 mph 27.6 mph N/A   Overcast
11:34 AM 17.1 °F 1.0 °F 5.4 °F 60% 29.91 in 10.0 mi West 18.4 mph 27.6 mph N/A   Overcast
11:53 AM 16.7 °F 0.1 °F 6.3 °F 64% 29.90 in 7.0 mi West 19.6 mph 26.5 mph N/A   Overcast
12:14 PM 17.2 °F 2.2 °F 5.0 °F 59% 29.90 in 10.0 mi West 16.1 mph 24.2 mph N/A   Overcast
12:34 PM 17.4 °F 1.9 °F 5.9 °F 61% 29.90 in 10.0 mi West 17.3 mph 26.5 mph N/A   Overcast
12:53 PM 19.9 °F 4.8 °F 5.2 °F 53% 29.89 in 7.0 mi West 18.4 mph 28.8 mph N/A   Mostly Cloudy
1:14 PM 19.6 °F 3.5 °F 6.4 °F 57% 29.90 in 7.0 mi West 20.7 mph 25.3 mph N/A   Overcast
1:34 PM 19.8 °F 2.6 °F 6.4 °F 56% 29.90 in 5.0 mi West 24.2 mph 32.2 mph N/A   Haze
1:53 PM 20.3 °F 4.0 °F 5.9 °F 54% 29.91 in 10.0 mi West 21.9 mph 25.3 mph N/A   Overcast
2:14 PM 20.3 °F 4.4 °F 5.2 °F 52% 29.92 in 10.0 mi West 20.7 mph 27.6 mph N/A   Overcast
2:34 PM 21.2 °F 6.4 °F 5.9 °F 52% 29.92 in 10.0 mi West 18.4 mph 25.3 mph N/A   Overcast
2:53 PM 20.1 °F 4.2 °F 6.8 °F 56% 29.93 in 7.0 mi WSW 20.7 mph 31.1 mph N/A   Overcast
3:14 PM 19.4 °F 5.0 °F 6.6 °F 58% 29.94 in 7.0 mi West 16.1 mph - N/A   Scattered Clouds
3:34 PM 19.6 °F 3.1 °F 6.3 °F 56% 29.95 in 10.0 mi WSW 21.9 mph 27.6 mph N/A   Scattered Clouds
3:53 PM 18.9 °F 2.9 °F 7.2 °F 60% 29.95 in 7.0 mi WSW 19.6 mph 31.1 mph N/A   Clear
4:14 PM 18.5 °F 2.9 °F 5.9 °F 58% 29.97 in 10.0 mi West 18.4 mph 26.5 mph N/A   Clear
4:34 PM 18.5 °F 3.3 °F 5.5 °F 57% 29.97 in 10.0 mi WSW 17.3 mph - N/A   Clear
4:53 PM 18.9 °F 4.8 °F 4.8 °F 54% 29.98 in 10.0 mi West 15.0 mph - N/A   Clear
5:14 PM 17.6 °F 3.7 °F 5.4 °F 59% 29.98 in 10.0 mi WSW 13.8 mph - N/A   Clear
5:34 PM 16.7 °F 3.2 °F 4.8 °F 60% 29.98 in 10.0 mi WSW 12.7 mph - N/A   Clear
5:53 PM 16.0 °F 2.3 °F 4.5 °F 60% 29.99 in 10.0 mi SW 12.7 mph - N/A   Clear
6:14 PM 14.5 °F 2.7 °F 4.1 °F 63% 30.00 in 10.0 mi WSW 9.2 mph - N/A   Clear
6:34 PM 14.0 °F 2.0 °F 3.9 °F 64% 30.01 in 10.0 mi SW 9.2 mph - N/A   Clear
6:53 PM 14.0 °F 0.5 °F 3.6 °F 63% 30.01 in 10.0 mi SW 11.5 mph - N/A   Clear
7:14 PM 14.4 °F 0.2 °F 3.7 °F 63% 30.01 in 10.0 mi SW 12.7 mph - N/A   Clear
7:34 PM 14.5 °F -0.2 °F 3.7 °F 62% 30.01 in 10.0 mi SW 13.8 mph - N/A   Clear
7:53 PM 14.0 °F -0.2 °F 3.2 °F 62% 30.01 in 10.0 mi SSW 12.7 mph - N/A   Clear
8:14 PM 14.0 °F 0.5 °F 3.9 °F 64% 30.01 in 10.0 mi SSW 11.5 mph - N/A   Clear
8:34 PM 13.8 °F 0.2 °F 4.6 °F 67% 30.01 in 10.0 mi SSW 11.5 mph 18.4 mph N/A   Clear
8:53 PM 13.1 °F -0.7 °F 4.8 °F 70% 30.01 in 10.0 mi SSW 11.5 mph - N/A   Clear
9:14 PM 13.1 °F -0.7 °F 4.8 °F 70% 30.01 in 10.0 mi SSW 11.5 mph - N/A   Clear
9:34 PM 13.1 °F -1.4 °F 5.2 °F 71% 30.01 in 10.0 mi SSW 12.7 mph - N/A   Clear
9:53 PM 13.8 °F -1.1 °F 5.7 °F 70% 30.01 in 10.0 mi SSW 13.8 mph - N/A   Clear
10:14 PM 13.5 °F -0.2 °F 5.7 °F 71% 30.00 in 10.0 mi SSW 11.5 mph 18.4 mph N/A   Clear
10:34 PM 13.5 °F -0.2 °F 5.9 °F 72% 30.00 in 10.0 mi SSW 11.5 mph 18.4 mph N/A   Clear
10:53 PM 13.1 °F -2.0 °F 5.5 °F 72% 30.00 in 10.0 mi SSW 13.8 mph 18.4 mph N/A   Clear
11:14 PM 13.5 °F -0.9 °F 5.5 °F 71% 29.99 in 10.0 mi SSW 12.7 mph - N/A   Clear
11:34 PM 13.5 °F -1.5 °F 5.2 °F 70% 29.99 in 10.0 mi SW 13.8 mph 21.9 mph N/A   Clear
11:53 PM 13.8 °F -2.2 °F 4.6 °F 67% 29.98 in 10.0 mi SW 16.1 mph 23.0 mph N/A   Clear